sat.trackr.live / text

‹ back to catalog

UNKNOWN

NORAD 87071

UNKNOWN UNKNOWN UNKNOWN

§ Identity

Operator
Country
Launch date
Launch site
Launch vehicle
Mass (kg)
RCS (m²)

External: N2YO · Heavens-Above

§ Orbital elements

Epoch: 2026-05-20T07:48:41.903136Z

Period
103.82 min
Inclination
61.2177°
Eccentricity
0.0474528
Mean motion
13.86998843 rev/d
Perigee alt
591.9 km
Apogee alt
1,286.4 km
Semi-major
7,317.3 km
B*
8.2245e-4
RAAN
159.9006°
Arg perigee
317.1895°
Mean anomaly
39.3070°
Rev number
62,447

§ Raw data

UNKNOWN1 87071U          26140.32548499  .00002233  00000+0  82245-3 0  99932 87071  61.2177 159.9006 0474528 317.1895  39.3070 13.86998843624477

JSON: /api/v1/satellites/87071 · /tle

For live sub-satellite position, see the globe view (requires WebGL).

§ Visibility from observer

Set your observer location to see the next 7 days of passes ≥ 10°. The values pass through the URL so the page stays shareable.

No JS? Fill the form by hand. The geolocation button needs JavaScript.